Regional Weather Roundup
Issued by NWS Wakefield, VA

Home | Current Version | Previous Version | Text Only | Print | Product List | Glossary On
Versions: 1 2 3 4 5 6 7 8 9 10 11 12 13 14 15 16 17 18 19 20 21 22 23 24 25 26 27 28 29 30 31 32 33 34 35 36 37 38 39 40 41 42 43 44 45 46 47 48 49 50
000
ASUS41 KAKQ 062115
RWRAKQ

REGIONAL WEATHER ROUNDUP
NATIONAL WEATHER SERVICE WAKEFIELD VA
500 PM EDT MON JUL 06 2015

Note: "fair" indicates few or no clouds below 12,000 feet with no
significant weather and/or obstructions to visibility. * = Denotes
station may not report precipitation (e.g., rain,snow,etc.),
thunder or fog.

VAZ042-051-052>054-056-062200-
NORTHERN VIRGINIA

CITY           SKY/WX    TMP DP  RH WIND       PRES   REMARKS
WASH NATIONAL  PTSUNNY   88  71  57 S12       30.03F
DULLES         PTSUNNY   82  70  66 S8        30.03F
FORT BELVOIR   LGT RAIN  80  73  79 S5        30.03S
QUANTICO       LGT RAIN  84  70  62 SW13      29.98F
FREDERICKSBRG* PTSUNNY   86  72  61 SW8       30.03S
STAFFORD*      MOSUNNY   83  69  62 S9        30.08S
WARRENTON      MOSUNNY   86  74  68 SW5       30.03F
CULPEPER*      PTSUNNY   84  71  63 SW6       30.04S
MANASSAS*      CLOUDY   N/A N/A N/A S6        30.03F
LEESBURG*      MOSUNNY   81  77  89 S14       30.06S
WINCHESTER     PTSUNNY   82  70  65 S10       30.04F
FRONT ROYAL*   FAIR      82  70  65 S3        30.03S
LURAY*         MOCLDY    86  70  58 SW12      30.05S
$$

VAZ048-049-060>072-079>083-062200-
CENTRAL AND SOUTH CENTRAL VIRGINIA

CITY           SKY/WX    TMP DP  RH WIND       PRES   REMARKS
RICHMOND       TSTM      77  71  82 W17G26    30.06R
CHESTERFIELD*  NOT AVBL
PETERSBURG*    PTSUNNY   83  79  86 S7        30.06R HX  95
HANOVER        MOSUNNY   86  70  58 S10G20    30.05F
TAPPAHANNOCK*  MOSUNNY   86  68  54 S5        30.05F
QUINTON*       NOT AVBL
CHARLOTTSVILLE MOSUNNY   78  68  71 SW7       30.06R
GORDONSVILLE*  MOCLDY    79  72  78 SW8       30.05R
ORANGE*        LGT RAIN  79  72  78 SE7       30.06S
LOUISA*        SUNNY     81  72  74 CALM      30.04S
BUMPASS*       FAIR      83  72  69 S5        30.05F
FARMVILLE*     PTSUNNY   77  76  97 CALM      30.06F
CREWE*         CLOUDY    75  73  91 CALM      30.07R
FORT PICKETT*  CLOUDY    78  73  85 W8        30.07R
CHASE CITY*    FAIR      86  77  76 W6        30.07S HX  97
CLARKSVILLE*   FAIR      86  72  62 SW7       30.06S
SOUTH HILL*    SUNNY     85  71  61 SW8       30.12S
LAWRENCEVILLE* NOT AVBL
EMPORIA*         N/A     86  72  62 S7        30.07S
$$

VAZ088>098-062200-
SOUTHEAST VIRGINIA

CITY           SKY/WX    TMP DP  RH WIND       PRES   REMARKS
NORFOLK        PTSUNNY   83  71  67 S10       30.08F
VIRGINIA BEACH PTSUNNY   79  78  97 SE6       30.08F
NORFOLK NAVAL  PTSUNNY   82  72  71 S12G18    30.09F
WEST POINT*    SUNNY     90  69  50 SE8       30.06F
SALUDA*        MOCLDY    85  76  75 S10G16    30.05F
NEWPORT NEWS   MOSUNNY   86  71  60 S9        30.06F
LANGLEY AFB    MOSUNNY   83  73  71 SE10      30.06S
FORT EUSTIS    SUNNY     86  83  90 SE8       30.04F HX 106
WILLIAMSBURG*  SUNNY     91  77  62 SE12      30.06F HX 105
HR EXEC AP*    MOCLDY    81  73  78 SE9       30.09S
FRANKLIN*      MOSUNNY   84  73  68 SE6       30.07R
WAKEFIELD      SUNNY     87  73  62 VRB3      30.05S
$$

VAZ020-022-025-037-045-062200-
WEST CENTRAL AND SOUTHWEST VIRGINIA

CITY           SKY/WX    TMP DP  RH WIND       PRES   REMARKS
STAUNTON*      PTSUNNY   80  68  67 S5        30.09S
WAYNESBORO*    MOCLDY    76  70  83 NW6       30.09S
HOT SPRINGS VA FOG       66  66 100 W9        30.19S VSB 1/4
LYNCHBURG      PTSUNNY   78  70  76 CALM      30.09S
DANVILLE       SUNNY     86  68  54 W9        30.07F
SOUTH BOSTON*  FAIR      84  68  58 MISG      30.07S
MARTINSVILLE   SUNNY     86  66  51 SW5       30.10S
ROANOKE        PTSUNNY   81  68  64 NW3       30.09S
BLACKSBURG     MOSUNNY   76  67  74 W8        30.17R
DUBLIN*        CLOUDY    76  65  67 W10       30.17S
MARION*        CLOUDY    73  65  76 W15       30.21F
HILLSVILLE*    CLOUDY    73  63  69 W13       30.18R
RICHLANDS*     CLOUDY    71  67  86 CALM      30.20S
WISE*          PTSUNNY   73  61  64 W6        30.21F
ABINGDON*      PTSUNNY   77  66  67 W5        30.17F
$$

MDZ021>025-VAZ099-100-062200-
SOUTHERN MARYLAND AND THE DELMARVA PENINSULA

CITY           SKY/WX    TMP DP  RH WIND       PRES   REMARKS
PATUXENT RIVER MOSUNNY   83  75  77 SE16G23   30.05F
BAY BRIDGE APT   N/A     88  68  51 SE10      30.04F
LEONARDTOWN    MOSUNNY   84  72  65 SE9       30.06F
DOVER          LGT RAIN  81  73  78 SE14      30.05F
GEORGETOWN     TSTM      78  72  81 SE6       30.07S
EASTON         MOSUNNY   90  72  55 S10G18    30.09F HX  96
CAMBRIDGE      SUNNY     86  68  54 S8        30.05F
SALISBURY      MOSUNNY   84  75  74 S13       30.07S
OCEAN CITY     PTSUNNY   81  75  82 S8        30.09S
WALLOPS ISLAND MOSUNNY   83  77  82 S14G22    30.09F
ACCOMACK*      PTSUNNY   79  75  89 S10       30.07F
$$

NCZ012>017-030>032-062200-
NORTH CENTRAL AND EASTERN NORTH CAROLINA

CITY           SKY/WX    TMP DP  RH WIND       PRES   REMARKS
ROANOKE RAPIDS FAIR      86  70  58 SW9       30.06S
RALEIGH        MOSUNNY   89  68  49 SW10G16   30.07F
ELIZABETH CITY CLOUDY    84  74  71 S13       30.09F
AHOSKIE*       SUNNY     87  70  57 CALM      30.06S
EDENTON*         N/A     84  74  70 S10       30.08S
CURRITUCK*     LGT RAIN  81  72  73 S3        30.10S
KILL DEVIL HLS CLOUDY    83  74  74 S7        30.10S
MANTEO         CLOUDY    82  74  74 SW14      30.11S
CAPE HATTERAS  PTSUNNY   82  74  76 S12       30.12F
TARBORO*         N/A     91  69  47 SW8       30.07S HX  95
GOLDSBORO      SUNNY     91  68  46 S2        30.04F HX  95
WASHINGTON     MOSUNNY   85  73  65 S7        30.08S
GREENVILLE     MOSUNNY   90  70  51 SW7       30.08S HX  95
NEW BERN       SUNNY     88  71  57 S10G18    30.09F
WILMINGTON     SUNNY     88  71  57 S12       30.08F
$$

VAZ048-062200-
ELSEWHERE

CITY           SKY/WX    TMP DP  RH WIND       PRES   REMARKS
HARRISBURG PA  PTSUNNY   79  72  79 W9        30.04F
BALTIMORE      PTSUNNY   84  71  65 S7        30.03F
ANNAPOLIS      SUNNY     84  71  65 S10       30.04F
ANDREWS AFB    MOSUNNY   86  70  60 VRB7      30.03F
PHILADELPHIA   PTSUNNY   86  69  56 S5        30.07F
HENDERSON NC   MOSUNNY   86  65  49 SW8       30.07F
GREENSBORO     PTSUNNY   88  64  44 W12       30.07F
ROCKY MOUNT    MOSUNNY   91  68  46 SW14      30.06F HX  95
$$

VAZ100-062200-
MARINE

STATION/POSITION TIME  TEMP    WIND        PRES    WAVE   SWELL
                       AIR SEA DIR/SP/G            HT/PER HT/PER
                 (UTC) (F)     (DEG/KT/KT) (MB)    (FT/S) (FT/S)
BRANDYWINE LGT   2000   76 74  120/ 13/ 13 1019.0F
CAPE MAY NJ      2000   81 78  140/  9/ 12 1018.6F
LEWES DE         2000   81 75  130/  8/ 12 1018.6F
15NM E FENWICK I 2050   77 76              1018.8F   2/ 8
OCEAN-CITY-INLET 2000   79 75  190/  8/ 12 1018.9F
WACHAPREAGUE VA  2000   81 85  200/ 14/ 17 1019.0F
GOOSES REEF MD   2000   81 79  170/ 12/ 14 1018.7F
COVE POINT MD    2000   79     170/ 13/ 14 1018.6F
SOLOMONS ISLAND  2000      81                N/A
BISHOPS HEAD MD  2000   81     150/ 14/ 15 1018.0F
PINEY POINT MD   2000          150/ 16/ 18   N/A
CAMBRIDGE MD     2000   87 79  180/  8/ 11 1017.8F
LEWISETTA VA     2000   85 82  200/  8/ 10 1017.4F
RAPPAHANNOCK LGT 2000          140/ 17/ 21 1019.1F
STINGRAY PT      2000   81 81  160/ 17/ 21 1018.1F   2/ 2
YORK RVR RNG VA  2000   79     160/ 14/ 16 1017.8F
YORKTOWN VA      2000   83 80  160/  8/ 10 1017.9F
JAMESTOWN VA     2000   85 84  150/  4/  8   N/A
DOMINION TERM VA 2000   81     130/  9/ 11 1018.4F
KIPTOPEKE VA     2000      83  140/  5/  5   N/A
CHES BAY BRIDGE  2000   75 75  130/ 10/ 12 1018.8F
CAPE HENRY VA    2000   74     170/  9/ 10   N/A
CHESAPEAKE LGHT  2000   78     290/ 10/ 17 1020.3R
WILLOUBY STN VA  2000   79     130/  7/  8 1019.5F
CAPE HENRY BUOY  2028      78                N/A     3/ 9   2/13
1ST LANDING BUOY 2000      78              1019.0F   1/ 3
CAPE CHARLES BUO 2026      77                N/A     3/ 8   2/ 8
OFFSHORE WE BUOY 2011      78                N/A     3/ 8   2/ 8
64NM E OF VA BCH 2050   78 77  190/ 12/ 16 1019.3F   3/ 9   2/ 9
DUCK PIER NC     2000   80 78  190/ 12/ 16   N/A
44100 DUCK FRF   2024      79                N/A     2/13   2/13
44056 DUCK FRF   2011      78                N/A     2/13   2/13
OREGON INLET NC  2000   81 76  190/ 14/ 17 1019.6F
HATTERAS NC      2000   83 80  180/  5/ 12 1019.7F
DIAMOND SHLS NC  2050   80 83  190/ 14/ 16 1019.9F   3/ 4   2/ 8
CAPE LOOKOUT NC  2100   82     180/ 15/ 17 1019.4F
$$



USA.gov is the U.S. government's official web portal to all federal, state and local government web resources and services.